FUNCUBE-1 (AO-73)

Last updated on Tue Jul 08 2025 00:03:06 GMT+0000 (Coordinated Universal Time)

1 39444U 13066AE 25188.18481637 .00006443 00000+0 47938-3 0 9992 2 39444 97.7803 150.2089 0041029 293.9192 65.7738 15.02640414627734
UTC large
Height (km)
Speed (km/s)
/
Latitude / Longitude
Inclination (degrees)
Orbital Period (minutes)
Azimuth
Elevation
Range (km)
Doppler Factor

Next 0 passes for location: London (51.5072 / 0.1276)

Sorry there are no passes over London.